Weather History for Junction, TX

Change the Weather History Date:

Saturday, October 6, 2012

  Actual Average Record
Temperature  
Mean Temperature 60 °F -  
Max Temperature 68 °F 78 °F 91 °F (2002)
Min Temperature 51 °F 55 °F 44 °F (2013)
Degree Days  
Heating Degree Days 5    
Growing Degree Days 10 (Base 50)    
Moisture  
Dew Point 53 °F    
Average Humidity 80    
Maximum Humidity 93    
Minimum Humidity 62    
Precipitation  
Precipitation 0.00 in - - ()
Sea Level Pressure  
Sea Level Pressure 30.04 in    
Wind  
Wind Speed 8 mph (NE)    
Max Wind Speed 17 mph    
Max Gust Speed 20 mph    
Visibility 8 miles    
Events      
Averages and records for this station are not official NWS values.
T = Trace of Precipitation, MM = Missing Value Source: NWS Daily Summary

Daily Weather History Graph

Daily Weather History Graph

Search for Another Location

Airport:

Trip Planner

Search our weather history database for the weather conditions in past years. The results will help you decide how hot, cold, wet, or windy it might be!

Date:

Astronomy

Oct. 06, 2012 Rise Set
Actual Time 7:35 AM CDT 7:17 PM CDT
Civil Twilight 7:11 AM CDT 7:41 PM CDT
Nautical Twilight 6:43 AM CDT 8:09 PM CDT
Astronomical Twilight 6:16 AM CDT 8:37 PM CDT
Moon 11:52 PM CDT (10/6) 1:13 PM CDT (10/6)
Length of Visible Light 12h 29m
Length of Day
11h 41m
Waning Gibbous, 65% of the Moon is Illuminated
Oct 6
Waning Gibbous
Oct 8
Last Quarter
Oct 15
New
Oct 21
First Quarter
Oct 29
Full

Hourly Weather History & Observations

Time (CDT) Temp. Dew Point Humidity Pressure Visibility Wind Dir Wind Speed Gust Speed Precip Events Conditions
12:51 AM 69.1 °F 59.0 °F 70% 29.91 in 10.0 mi NNE 4.6 mph - N/A   Clear
1:51 AM 66.9 °F 57.9 °F 73% 29.92 in 10.0 mi Calm Calm - N/A   Clear
2:51 AM 64.9 °F 57.9 °F 78% 29.94 in 9.0 mi East 5.8 mph - N/A   Clear
3:51 AM 64.9 °F 59.0 °F 81% 29.94 in 9.0 mi ENE 5.8 mph - N/A   Clear
4:19 AM 64.4 °F 59.0 °F 83% 30.04 in 9.0 mi ENE 9.2 mph - N/A   Mostly Cloudy
4:41 AM 64.4 °F 57.2 °F 77% 30.04 in 9.0 mi ENE 8.1 mph - N/A   Scattered Clouds
4:51 AM 64.0 °F 57.9 °F 80% 29.94 in 9.0 mi ENE 8.1 mph - N/A   Scattered Clouds
4:55 AM 62.6 °F 57.2 °F 82% 30.04 in 9.0 mi ENE 8.1 mph - N/A   Mostly Cloudy
5:27 AM 62.6 °F 57.2 °F 82% 30.05 in 9.0 mi ENE 8.1 mph - N/A   Overcast
5:51 AM 63.0 °F 57.0 °F 81% 29.95 in 9.0 mi ENE 10.4 mph - N/A   Overcast
6:51 AM 62.1 °F 55.9 °F 80% 29.97 in 9.0 mi ENE 9.2 mph - N/A   Overcast
7:51 AM 60.1 °F 55.0 °F 83% 29.99 in 8.0 mi ENE 8.1 mph - N/A   Overcast
8:51 AM 59.0 °F 55.0 °F 87% 30.01 in 6.0 mi ENE 10.4 mph - N/A   Overcast
9:51 AM 59.0 °F 55.0 °F 87% 30.03 in 6.0 mi ENE 9.2 mph - N/A   Overcast
10:51 AM 60.1 °F 55.0 °F 83% 30.04 in 7.0 mi ENE 8.1 mph - N/A   Overcast
11:51 AM 60.1 °F 54.0 °F 80% 30.04 in 8.0 mi NNE 9.2 mph - N/A   Overcast
12:51 PM 60.1 °F 54.0 °F 80% 30.04 in 10.0 mi NNE 10.4 mph - N/A   Overcast
1:21 PM 60.8 °F 53.6 °F 77% 30.12 in 10.0 mi NNE 8.1 mph - N/A   Overcast
1:51 PM 61.0 °F 53.1 °F 75% 30.02 in 10.0 mi NE 8.1 mph 16.1 mph N/A   Overcast
2:28 PM 62.6 °F 53.6 °F 72% 30.08 in 10.0 mi ENE 10.4 mph - N/A   Overcast
2:51 PM 62.1 °F 53.1 °F 72% 30.00 in 10.0 mi ENE 10.4 mph - N/A   Overcast
3:51 PM 61.0 °F 52.0 °F 72% 29.99 in 10.0 mi NNE 9.2 mph - N/A   Overcast
4:51 PM 57.9 °F 51.1 °F 78% 30.00 in 10.0 mi NE 12.7 mph - N/A   Overcast
5:01 PM 57.2 °F 51.8 °F 82% 30.08 in 10.0 mi NNE 12.7 mph - N/A   Overcast
5:51 PM 55.9 °F 50.0 °F 80% 30.02 in 7.0 mi NNE 15.0 mph - N/A   Overcast
6:11 PM 55.4 °F 50.0 °F 82% 30.09 in 4.0 mi NNE 10.4 mph 18.4 mph N/A   Haze
6:25 PM 53.6 °F 50.0 °F 88% 30.10 in 2.5 mi NNE 12.7 mph - N/A   Overcast
6:38 PM 53.6 °F 48.2 °F 82% 30.10 in 5.0 mi NNE 13.8 mph - N/A   Haze
6:51 PM 53.1 °F 50.0 °F 89% 30.04 in 2.5 mi NNE 15.0 mph - N/A   Overcast
7:25 PM 53.6 °F 50.0 °F 88% 30.11 in 4.0 mi NNE 9.2 mph - N/A   Overcast
7:51 PM 52.0 °F 50.0 °F 93% 30.05 in 3.0 mi ENE 5.8 mph - N/A   Overcast
8:05 PM 53.6 °F 48.2 °F 82% 30.12 in 9.0 mi NE 8.1 mph - N/A   Overcast
8:34 PM 53.6 °F 48.2 °F 82% 30.13 in 4.0 mi NNE 10.4 mph - N/A   Overcast
8:51 PM 53.1 °F 48.9 °F 86% 30.08 in 5.0 mi NE 10.4 mph - N/A   Overcast
9:36 PM 53.6 °F 48.2 °F 82% 30.16 in 8.0 mi NE 8.1 mph - N/A   Overcast
9:51 PM 54.0 °F 48.0 °F 80% 30.09 in 8.0 mi NE 9.2 mph 19.6 mph N/A   Overcast
10:12 PM 53.6 °F 46.4 °F 77% 30.16 in 9.0 mi NNE 10.4 mph - N/A   Overcast
10:51 PM 54.0 °F 46.0 °F 75% 30.11 in 10.0 mi NNE 13.8 mph - N/A   Overcast
11:34 PM 51.8 °F 44.6 °F 76% 30.18 in 10.0 mi NNE 17.3 mph - N/A   Overcast
11:51 PM 52.0 °F 45.0 °F 77% 30.12 in 10.0 mi NNE 12.7 mph - N/A   Overcast